EW3707 Weather Reports


Display with metric or nautical units.
time (UTC)temp
F
wind
direction
speed
MPH
gust
MPH
rain 1hr
in
rain 24hr
in
rain mn
in
humidity
%
barometer
mb
20260906090016 68 0.0 2.0 0.00 0.00 0.00 17 1018.8
20260906085016 68 0.0 3.0 0.00 0.00 0.00 17 1018.6
20260906084017 68 113 1.0 3.0 0.00 0.00 0.00 17 1018.4
20260906083016 68 0.0 2.0 0.00 0.00 0.00 21 1018.6
20260906082016 68 0.0 1.0 0.00 0.00 0.00 26 1018.7
20260906081016 68 113 1.0 5.0 0.00 0.00 0.00 26 1018.7
20260906080016 69 90 1.0 3.0 0.00 0.00 0.00 26 1018.8
20260906075016 69 0.0 1.0 0.00 0.00 0.00 27 1018.9
20260906074016 69 0.0 1.0 0.00 0.00 0.00 28 1018.9
20260906073016 69 0.0 2.0 0.00 0.00 0.00 30 1018.9
20260906072016 69 0.0 1.0 0.00 0.00 0.00 27 1018.9
20260906071016 69 0.0 1.0 0.00 0.00 0.00 22 1018.8
20260906070036 69 0.0 0.0 0.00 0.00 0.00 23 1019.0
20260906065016 69 0.0 1.0 0.00 0.00 0.00 24 1019.1
20260906064016 69 0.0 0.0 0.00 0.00 0.00 28 1019.2
20260906063016 69 0.0 2.0 0.00 0.00 0.00 31 1019.0
20260906062016 69 0.0 1.0 0.00 0.00 0.00 35 1019.1
20260906061036 69 0.0 0.0 0.00 0.00 0.00 35 1019.1
20260906060016 70 0.0 0.0 0.00 0.00 0.00 39 1019.1
20260906055016 70 0.0 0.0 0.00 0.00 0.00 45 1019.1
20260906054016 70 0.0 1.0 0.00 0.00 0.00 43 1019.1
20260906053016 70 0.0 0.0 0.00 0.00 0.00 48 1019.0
20260906052016 70 0.0 2.0 0.00 0.00 0.00 46 1019.0
20260906051016 70 0.0 0.0 0.00 0.00 0.00 45 1019.0
20260906050016 70 0.0 1.0 0.00 0.00 0.00 41 1018.8
20260906045017 69 0.0 0.0 0.00 0.00 0.00 36 1018.8
20260906044017 69 0.0 0.0 0.00 0.00 0.00 35 1018.7
20260906043017 69 0.0 0.0 0.00 0.00 0.00 26 1018.5
20260906042017 69 0.0 1.0 0.00 0.00 0.00 18 1018.5
20260906041016 69 0.0 0.0 0.00 0.00 0.00 6 1018.5
20260906040017 69 0.0 1.0 0.00 0.00 0.00 1 1018.4
20260906035017 68 0.0 0.0 0.00 0.00 0.00 1 1018.0
20260906034017 69 0.0 0.0 0.00 0.00 0.00 1 1018.0
20260906033017 69 0.0 0.0 0.00 0.00 0.00 1 1018.2
20260906032017 69 0.0 0.0 0.00 0.00 0.00 4 1018.2
20260906031016 69 0.0 0.0 0.00 0.00 0.00 16 1018.1
20260906030017 69 0.0 0.0 0.00 0.00 0.00 26 1018.0
20260906025016 70 0.0 0.0 0.00 0.00 0.00 30 1017.8
20260906024017 70 0.0 0.0 0.00 0.00 0.00 38 1017.6
20260906023017 71 0.0 0.0 0.00 0.00 0.00 45 1017.4
20260906022016 71 0.0 0.0 0.00 0.00 0.00 50 1017.2
20260906021017 72 0.0 0.0 0.00 0.00 0.00 59 1017.2
20260906020017 72 0.0 0.0 0.00 0.00 0.00 65 1017.0
20260906015056 73 0.0 0.0 0.00 0.00 0.00 71 1016.8
20260906014016 74 0.0 0.0 0.00 0.00 0.00 74 1016.4
20260906013017 75 0.0 0.0 0.00 0.00 0.00 75 1016.3
20260906012017 75 0.0 1.0 0.00 0.00 0.00 75 1016.3
20260906011017 75 0.0 2.0 0.00 0.00 0.00 75 1016.1
20260906010017 76 0.0 1.0 0.00 0.00 0.00 75 1016.2
20260906005016 76 0.0 1.0 0.00 0.00 0.00 75 1016.1
20260906004016 77 0.0 1.0 0.00 0.00 0.00 74 1016.1
20260906003016 78 0.0 1.0 0.00 0.00 0.00 73 1016.2
20260906002016 78 90 2.0 10.0 0.00 0.00 0.00 72 1016.1
20260906001017 79 90 1.0 6.0 0.00 0.00 0.00 71 1016.0
20260906000016 79 68 1.0 4.0 0.00 0.00 0.00 71 1016.1
20260905235016 80 90 2.0 9.0 0.00 0.00 0.00 69 1016.0
20260905234036 81 90 2.0 6.0 0.00 0.00 0.00 68 1016.1
20260905233017 82 90 1.0 5.0 0.00 0.00 0.00 68 1016.2
20260905232017 82 90 1.0 5.0 0.00 0.00 0.00 67 1016.2
20260905231016 82 45 2.0 7.0 0.00 0.00 0.00 66 1016.0
20260905230017 83 0.0 2.0 0.00 0.00 0.00 66 1016.2
20260905225016 83 90 2.0 7.0 0.00 0.00 0.00 65 1016.1
20260905224016 83 45 1.0 6.0 0.00 0.00 0.00 63 1016.1
20260905223017 83 0.0 3.0 0.00 0.00 0.00 64 1016.2
20260905222036 83 0.0 1.0 0.00 0.00 0.00 64 1016.3
20260905221016 83 0.0 3.0 0.00 0.00 0.00 65 1016.5
20260905220016 82 0.0 2.0 0.00 0.00 0.00 66 1016.5
20260905215016 82 0.0 2.0 0.00 0.00 0.00 65 1016.6
20260905214017 83 90 1.0 4.0 0.00 0.00 0.00 64 1016.7
20260905213016 83 0.0 1.0 0.00 0.00 0.00 64 1016.8
20260905212017 84 0.0 3.0 0.00 0.00 0.00 63 1016.9
20260905211017 84 0.0 1.0 0.00 0.00 0.00 64 1016.8
20260905210037 82 0.0 1.0 0.00 0.00 0.00 67 1016.9
20260905205016 82 0.0 1.0 0.00 0.00 0.00 67 1017.0
20260905204017 83 225 1.0 5.0 0.00 0.00 0.00 66 1017.1
20260905203036 82 0 1.0 3.0 0.00 0.00 0.00 67 1017.1
20260905202016 82 0.0 2.0 0.00 0.00 0.00 67 1017.2
20260905201016 82 0.0 1.0 0.00 0.00 0.00 68 1017.5
20260905200016 82 0.0 3.0 0.00 0.00 0.00 66 1017.4
20260905195016 83 248 1.0 3.0 0.00 0.00 0.00 64 1017.4
20260905194016 82 0.0 1.0 0.00 0.00 0.00 66 1017.4
20260905193016 83 0.0 1.0 0.00 0.00 0.00 65 1017.3
20260905192016 82 0.0 3.0 0.00 0.00 0.00 67 1017.3
20260905191016 82 0.0 2.0 0.00 0.00 0.00 69 1017.3
20260905190016 80 0.0 2.0 0.00 0.00 0.00 72 1017.2
20260905185017 79 0.0 1.0 0.00 0.00 0.00 72 1017.4
20260905184016 79 0.0 2.0 0.00 0.00 0.00 73 1017.4
20260905183016 79 113 1.0 3.0 0.00 0.00 0.00 73 1017.5
20260905182016 80 0.0 0.0 0.00 0.00 0.00 72 1017.7
20260905181016 80 0.0 0.0 0.00 0.00 0.00 72 1017.7
20260905180037 80 293 1.0 3.0 0.00 0.00 0.00 73 1017.7
20260905175016 79 0.0 3.0 0.00 0.00 0.00 75 1017.8
20260905174016 78 0.0 3.0 0.00 0.00 0.00 75 1017.8
20260905173016 77 0.0 1.0 0.00 0.00 0.00 75 1017.9
20260905172017 77 0.0 3.0 0.00 0.00 0.00 75 1018.0
20260905171017 76 0.0 3.0 0.00 0.00 0.00 74 1018.0
20260905170016 76 0.0 1.0 0.00 0.00 0.00 74 1017.9
20260905165016 75 0.0 3.0 0.00 0.00 0.00 73 1017.9
20260905164016 75 0.0 1.0 0.00 0.00 0.00 72 1018.1
20260905163016 74 0.0 0.0 0.00 0.00 0.00 70 1018.1
20260905162016 74 0.0 1.0 0.00 0.00 0.00 69 1018.2
20260905161037 74 0.0 0.0 0.00 0.00 0.00 69 1018.2
20260905160037 74 0.0 2.0 0.00 0.00 0.00 69 1018.1
20260905155016 74 0.0 0.0 0.00 0.00 0.00 67 1018.1
20260905154016 73 0.0 0.0 0.00 0.00 0.00 65 1018.0
20260905153017 73 0.0 2.0 0.00 0.00 0.00 63 1017.9
20260905152017 73 0.0 3.0 0.00 0.00 0.00 60 1017.8
20260905151016 73 90 1.0 6.0 0.00 0.00 0.00 58 1017.8
20260905150016 73 0.0 0.0 0.00 0.00 0.00 52 1017.6
20260905145016 73 90 1.0 4.0 0.00 0.00 0.00 51 1017.6
20260905144017 73 0.0 3.0 0.00 0.00 0.00 44 1017.6
20260905143016 73 0 1.0 3.0 0.00 0.00 0.00 48 1017.4
20260905142016 73 0 1.0 3.0 0.00 0.00 0.00 43 1017.5
20260905141016 73 113 2.0 6.0 0.00 0.00 0.00 45 1017.3
20260905140016 73 113 1.0 5.0 0.00 0.00 0.00 42 1017.2
20260905135016 73 338 1.0 5.0 0.00 0.00 0.00 30 1017.0
20260905134016 73 0.0 2.0 0.00 0.00 0.00 19 1016.8
20260905133016 73 0.0 3.0 0.00 0.00 0.00 13 1016.7
20260905132016 73 0.0 1.0 0.00 0.00 0.00 1 1016.4
20260905131016 73 0.0 2.0 0.00 0.00 0.00 1 1016.4
20260905130016 73 0.0 2.0 0.00 0.00 0.00 1 1016.4
20260905125016 72 0.0 2.0 0.00 0.00 0.00 1 1016.5
20260905124016 72 0.0 2.0 0.00 0.00 0.00 1 1016.3
20260905123016 72 0.0 0.0 0.00 0.00 0.00 1 1016.4
20260905122016 72 0.0 0.0 0.00 0.00 0.00 1 1016.3
20260905121016 72 0.0 1.0 0.00 0.00 0.00 1 1016.3
20260905120016 72 0.0 1.0 0.00 0.00 0.00 1 1016.1
20260905115016 72 0.0 1.0 0.00 0.00 0.00 1 1016.3
20260905114016 72 0.0 0.0 0.00 0.00 0.00 1 1016.1
20260905113016 72 0.0 0.0 0.00 0.00 0.00 1 1015.9
20260905112016 72 0.0 0.0 0.00 0.00 0.00 1 1016.0
20260905111016 72 0.0 1.0 0.00 0.00 0.00 1 1015.6
20260905110016 72 0.0 3.0 0.00 0.00 0.00 1 1015.4
20260905105016 72 0.0 2.0 0.00 0.00 0.00 1 1015.3
20260905104016 72 0.0 1.0 0.00 0.00 0.00 1 1015.2
20260905103036 72 0.0 2.0 0.00 0.00 0.00 1 1015.1
20260905102016 72 68 1.0 3.0 0.00 0.00 0.00 1 1015.0
20260905101036 72 0.0 3.0 0.00 0.00 0.00 1 1015.0
20260905100016 73 0.0 1.0 0.00 0.00 0.00 1 1015.0
20260905095016 73 0.0 1.0 0.00 0.00 0.00 1 1015.1
20260905094016 73 0.0 1.0 0.00 0.00 0.00 1 1015.2
20260905093016 73 0.0 1.0 0.00 0.00 0.00 1 1015.2
20260905092016 73 0.0 1.0 0.00 0.00 0.00 1 1015.3
20260905091056 73 0.0 0.0 0.00 0.00 0.00 1 1015.5